Погода в Сараеве

Босния и Герцеговина     43˚51′04″N   18˚21′39″E
темп.,
°C
ветер,
м/с
пор.,
м/с
влажн.,
%
обл.,
%
осадки,
мм/ч
давл.,
гПа
погр.,
м
6 декабря, вс
вс601:00+6˚ююв31290100 0.1 1012692
04:00+5˚ю399367 0.2 1011380
07:00+5˚ююв368675 0.2 1010303
10:00+8˚ююв3137178 0.0 10091267
13:00+10˚ююв4146489 0.0 10061769
16:00+6˚ююв397864 0.0 1004517
19:00+7˚ююв5177080 0.0 10031246
22:00+6˚ю5197968 0.4 10031298
7 декабря, пн
пн701:00+5˚ююз249584 4.3 1004249
04:00+4˚ю239395 0.9 1005211
07:00+4˚юз129498 1.1 1006149
10:00+6˚юз128268 0.0 1007385
13:00+7˚зюз127684 0.1 1007646
16:00+4˚юз1289100 0.1 100838
19:00+3˚ююз2292100 0.1 100958
22:00+2˚ююз2392100 0.0 101068
8 декабря, вт
вт801:00+1˚ю339276 0.0 101170
04:00+1˚ю249210 0.0 1011120
07:00+1˚ю339120 0.0 101172
10:00+5˚ю367669 0.0 1011589
13:00+6˚ю397684 0.1 10101112
16:00+4˚ю258887 0.2 1009288
19:00+4˚ююв398994 0.3 1009533
22:00+4˚юв31193100 0.9 1008969
9 декабря, ср
ср901:00+4˚вюв2694100 1.8 1007433
04:00+3˚в1297100 1.6 1006110
07:00+2˚юв1299100 7.8 1005121
10:00+3˚вюв2298100 5.1 1003164
13:00+2˚юв2498100 11.7 1002211
16:00+2˚ююв41097100 4.6 1002643
19:00+3˚ю3696100 7.1 1003266
22:00+2˚ююв2898100 8.2 1004524
10 декабря, чт
чт1001:00+3˚ю2397100 10.2 1005153
04:00+3˚ю2397100 1.1 1005120
07:00+3˚ююв3494100 1.2 1006184
10:00+4˚ю2492100 0.0 1007288
13:00+5˚ю1288100 0.0 1007291
16:00+2˚ю1295100 0.0 100850
19:00+1˚зюз0091100 0.0 100922
22:00+2˚ссв119998 0.0 101072